047  
ASUS44 KSHV 162010  
RWRSHV  
 
WEATHER ROUNDUP FOR THE FOUR STATE AREA  
NATIONAL WEATHER SERVICE SHREVEPORT LA  
300 PM CDT TUE JUL 16 2019  
 
NOTE: "FAIR" INDICATES FEW OR NO CLOUDS BELOW 12000 FEET  
WITH NO SIGNIFICANT WEATHER AND/OR S TO VISIBILITY
.  
 
!LAZ001-LAZ014-TXZ097-162100  
SHREVEPORT...MONROE...TEXARKANA RADIOS  
 
CITY SKY/WX TMP DP RH WIND PRES REMARKS
 
SHREVEPORT MOSUNNY 92 76 59 SW12 29.99F HX 104  
MONROE PTSUNNY 92 77 61 SW14G22 30.00F HX 105  
NATCHITOCHES N/A 94 76 55 SW8 30.02F HX 107  
TEXARKANA SUNNY 87 74 64 SW12G20 29.99F  

 
 
!LAZ001-LAZ014-TXZ097-162100  
OTHER LOCATIONS...  
 
CITY SKY/WX TMP DP RH WIND PRES REMARKS
 
DOWNTOWN SHV SUNNY 94 74 52 SW15 29.99F HX 104  
BOSSIER CITY MOSUNNY 93 73 52 SW12G20 29.98F HX 102  
RUSTON PTSUNNY 90 74 59 S9G16 30.04F HX 99  
LITTLE ROCK CLOUDY 77 74 90 SW13 29.98F  
EL DORADO N/A 89 76 65 SW10G18 29.99F HX 100  
JACKSON NOT AVBL  
NEW ORLEANS PTSUNNY 92 77 61 S12 30.08F HX 105  
HOUSTON PTSUNNY 96 74 48 S20 29.99F HX 107  
LUFKIN MOSUNNY 92 74 55 SW8 30.01F HX 101  
TYLER MOSUNNY 93 71 48 S12 30.00F HX 100  
DAL FT WORTH MOSUNNY 96 73 47 SW14G20 29.93F HX 105  

 
 
!TXZ136-TXZ165-162100  
TYLER...LUFKIN RADIOS  
 
CITY SKY/WX TMP DP RH WIND PRES REMARKS
 
TYLER MOSUNNY 93 71 48 S12 30.00F HX 100  
GILMER PTCLDY 92 72 52 SW7 30.00S HX 99  
LONGVIEW MOSUNNY 93 76 57 SW10G18 29.99F HX 105  
LUFKIN MOSUNNY 92 74 55 SW8 30.01F HX 101  

 
 
!TXZ136-TXZ165-162100  
OTHER LOCATIONS...  
 
CITY SKY/WX TMP DP RH WIND PRES REMARKS
 
NACOGDOCHES MOSUNNY 94 77 57 SW9 30.02F HX 108  
BEAUMONT PTSUNNY 93 77 59 S13G20 30.03F HX 107  
HOUSTON PTSUNNY 96 74 48 S20 29.99F HX 107  
COLLEGE STN MOSUNNY 95 73 48 S17 29.98F HX 104  
AUSTIN MOSUNNY 97 71 42 S14G23 29.96F HX 104  
DAL FT WORTH MOSUNNY 96 73 47 SW14G20 29.93F HX 105  
TEXARKANA SUNNY 87 74 64 SW12G20 29.99F  
SHREVEPORT MOSUNNY 92 76 59 SW12 29.99F HX 104  
FORT POLK PTSUNNY 87 78 72 S8 30.03S HX 100  
LAKE CHARLES N/A 90 77 65 S8 30.05F HX 103  

 
 
 
CLICK HERE TO GO TO PREVIOUS BULLETINS.

The Nexlab LA Page
The Nexlab TX Page
The Nexlab AR Page
The Nexlab OK Page Main Text Page